Wind_Speed
43 42 40 39 39 41 46 53 59 64 68 70 73 77 83 89 94 96 97 95 92 89 85 83 81 80 77 76 73 69 64 59 57 56 54 53 52 51
42 41 40 39 39 40 43 49 56 61 65 69 70 73 78 85 90 94 97 95 93 90 87 84 81 79 76 75 74 71 69 63 57 55 54 53 51 52
38 39 39 38 38 39 41 45 52 58 62 66 68 70 73 80 86 91 94 94 92 91 88 84 82 80 79 75 74 72 71 68 63 58 54 52 50 49
31 35 36 37 37 37 39 42 48 54 59 63 66 68 70 75 81 88 92 94 93 92 89 85 83 80 76 75 74 73 71 69 66 61 57 54 52 49
22 28 31 33 35 36 38 40 45 51 56 60 64 66 67 70 76 83 89 92 93 91 90 87 84 82 77 74 73 73 72 70 67 63 60 56 54 52
13 20 25 28 31 33 36 38 42 48 53 57 61 64 65 65 69 76 83 90 91 90 89 88 86 84 79 75 72 71 70 69 68 65 64 59 54 51
9 15 19 23 27 31 33 35 38 44 49 54 58 62 63 63 65 69 76 84 89 90 87 86 85 85 82 78 73 70 69 68 67 67 64 62 57 53
7 12 15 19 23 27 30 33 36 40 45 51 55 60 61 62 62 64 70 77 82 87 86 84 84 85 84 79 75 72 70 68 67 67 66 62 60 57
6 9 11 15 19 23 26 30 33 36 42 47 52 57 59 60 59 60 65 71 77 82 84 82 82 83 83 79 76 74 73 70 68 67 66 63 61 58
4 4 7 11 15 20 23 27 30 33 38 44 49 54 56 57 57 58 61 66 71 77 80 81 82 82 81 80 78 75 73 72 70 67 66 65 63 60
4 1 5 9 12 17 21 24 27 30 34 40 45 50 54 55 55 56 58 61 65 71 76 78 80 82 83 82 80 76 74 72 71 68 66 65 64 62
6 2 3 6 9 13 18 22 25 28 32 37 42 47 51 53 54 54 56 59 63 66 70 73 75 79 81 82 80 78 76 73 71 69 67 65 64 62
10 5 3 5 8 11 15 19 23 26 30 35 40 44 48 51 52 53 55 58 61 64 66 68 70 74 77 79 79 79 77 74 72 70 69 67 65 63
15 9 4 3 7 10 13 17 21 24 28 33 37 41 45 48 50 50 52 56 59 63 66 67 68 69 72 75 77 78 77 76 74 72 70 68 67 65
22 13 7 3 5 8 11 15 19 23 27 31 35 38 42 44 45 46 48 52 56 62 66 66 67 66 67 71 74 76 76 76 74 72 70 68 66 65
30 21 12 6 4 7 10 14 18 22 26 30 33 36 39 41 42 43 45 48 53 58 64 66 67 66 64 66 69 73 74 74 73 72 70 68 66 65
34 28 19 11 5 4 8 13 17 21 25 29 32 34 37 39 40 40 41 43 48 55 61 64 66 66 63 63 66 69 71 71 70 69 69 68 67 65
38 32 25 17 10 3 5 11 16 20 24 28 31 33 35 36 37 38 38 39 43 50 57 60 62 64 63 62 63 64 67 68 69 68 68 66 65 64
40 36 29 23 15 7 2 7 14 19 24 27 30 32 33 35 36 37 37 37 39 45 51 55 57 60 61 61 60 61 62 65 66 67 66 66 64 63
41 38 33 26 20 13 4 3 10 17 23 27 30 32 33 34 35 36 36 36 38 41 46 51 54 56 57 57 57 57 59 60 62 62 63 63 63 62
42 39 36 30 23 17 9 1 7 14 20 25 29 31 33 34 34 35 36 36 38 40 44 47 50 53 54 55 55 55 55 55 56 58 59 58 59 59
42 40 37 33 27 20 13 6 2 11 18 23 28 31 33 34 34 35 35 36 38 41 43 46 48 51 53 53 53 53 53 53 53 53 54 55 54 55
42 41 38 35 30 23 16 8 1 6 15 21 26 30 33 35 35 35 35 36 39 41 43 46 48 50 52 53 53 52 52 52 51 51 51 52 52 52
Wind_Direction
253 249 246 243 239 234 227 221 218 217 218 218 218 217 215 213 212 211 211 212 214 216 218 219 219 221 222 224 225 225 224 224 222 222 223 225 227 228
247 244 241 239 237 232 228 222 218 216 217 217 217 217 215 213 212 211 211 211 213 215 217 218 219 220 220 222 223 224 224 224 223 222 223 225 227 229
243 238 236 235 233 230 227 222 218 215 214 216 216 216 216 214 212 210 210 210 211 213 215 216 217 219 220 220 221 222 224 223 224 223 223 225 227 228
237 232 230 230 230 228 225 222 218 214 213 213 215 215 215 214 212 211 210 209 210 212 214 215 217 217 218 219 220 221 222 223 224 224 225 227 228 228
232 225 224 225 226 225 223 221 217 214 212 212 213 214 215 215 213 212 211 210 210 211 213 214 215 216 217 218 219 220 221 222 223 223 225 228 230 230
216 213 215 220 222 222 221 219 217 213 211 210 211 213 214 214 213 213 212 211 211 211 213 214 215 216 216 217 218 219 219 221 222 223 224 226 228 229
182 194 204 214 218 220 219 217 216 213 211 209 209 211 212 213 213 213 212 212 212 213 214 214 215 216 216 217 217 218 218 219 221 221 223 225 227 228
153 180 196 209 216 218 217 216 214 212 210 209 208 209 211 212 212 212 212 212 212 213 213 214 215 216 217 219 219 219 218 218 219 220 221 223 226 228
141 177 195 208 213 215 215 214 213 211 209 208 207 208 209 211 212 212 212 212 212 212 212 213 214 215 217 218 218 219 220 219 219 220 221 223 225 227
89 174 199 210 212 213 213 212 211 210 208 207 207 207 208 210 211 211 210 211 212 212 212 214 214 215 216 217 217 218 218 219 219 220 222 223 224 226
37 174 213 218 216 214 213 211 210 209 207 206 206 206 208 209 210 210 210 210 211 211 211 213 215 215 216 216 217 218 218 218 219 219 221 222 223 225
13 344 242 227 220 215 213 211 209 208 206 205 205 205 206 208 209 209 209 208 206 208 210 212 214 216 216 216 217 217 218 218 219 219 220 221 223 225
9 357 302 239 222 215 213 210 209 207 204 203 203 204 204 206 208 209 209 208 205 205 206 208 211 214 216 216 216 217 218 218 219 220 220 221 222 224
10 2 338 269 229 217 214 211 208 206 203 201 201 202 203 205 207 209 210 210 207 204 204 205 207 211 214 216 216 217 218 219 220 221 221 222 223 225
15 8 356 310 242 222 216 212 207 203 201 199 199 200 201 203 206 208 210 211 211 207 205 204 205 207 212 214 215 216 218 219 220 221 222 223 224 225
18 15 6 347 278 233 219 211 205 202 199 198 198 199 200 202 204 207 210 211 212 209 206 204 203 205 208 210 213 214 216 218 219 221 222 223 224 225
18 17 15 7 339 254 221 210 204 200 198 197 197 198 199 201 203 206 208 211 211 209 206 204 203 203 205 207 210 212 214 215 217 219 221 223 224 225
19 18 17 14 7 327 228 211 204 200 198 197 197 198 199 200 202 204 206 208 209 208 206 205 204 203 204 206 209 211 212 214 215 217 220 221 223 225
18 18 18 17 15 6 276 212 204 200 197 197 197 197 198 199 200 201 203 204 204 204 203 204 204 202 203 205 207 209 211 213 214 216 219 220 221 223
17 17 17 17 16 15 3 216 202 199 197 196 197 197 197 198 199 200 201 201 200 199 199 201 201 200 200 203 204 207 209 212 214 216 218 220 221 223
16 16 16 16 15 15 14 347 204 199 197 197 197 197 198 198 198 199 199 198 197 195 194 195 195 196 197 200 203 205 208 210 213 215 217 220 221 223
15 15 14 14 14 13 11 11 207 200 198 197 197 197 197 197 197 198 198 197 195 194 192 192 192 192 194 197 199 202 203 206 209 213 215 218 220 222
12 13 13 13 13 12 10 8 345 201 199 198 198 197 197 197 197 197 197 195 194 194 193 192 191 192 193 195 197 200 203 204 206 208 211 212 214 217
Height
5324 5329 5335 5341 5346 5352 5360 5370 5382 5393 5406 5418 5432 5447 5463 5481 5499 5518 5537 5555 5572 5587 5603 5618 5632 5647 5660 5672 5684 5694 5704 5712 5721 5730 5739 5747 5755 5762
5307 5314 5321 5328 5334 5341 5349 5358 5368 5380 5393 5405 5419 5433 5448 5465 5482 5501 5520 5538 5555 5572 5587 5603 5618 5632 5646 5659 5671 5682 5693 5702 5710 5721 5729 5737 5745 5752
5291 5300 5308 5316 5323 5330 5338 5346 5357 5368 5381 5393 5407 5420 5434 5450 5467 5485 5503 5522 5539 5556 5572 5588 5603 5618 5632 5645 5658 5670 5681 5692 5702 5711 5719 5727 5735 5743
5279 5288 5297 5305 5313 5320 5328 5336 5346 5357 5370 5382 5395 5408 5422 5437 5453 5470 5487 5505 5524 5541 5557 5573 5589 5604 5618 5631 5644 5657 5669 5680 5691 5701 5710 5719 5727 5734
5271 5280 5288 5296 5304 5312 5319 5327 5336 5347 5359 5372 5384 5397 5411 5425 5440 5456 5473 5491 5509 5526 5543 5559 5574 5590 5604 5618 5631 5644 5657 5670 5681 5691 5700 5708 5717 5725
5268 5275 5283 5290 5297 5304 5311 5319 5328 5338 5350 5362 5374 5387 5401 5415 5429 5445 5461 5477 5494 5512 5529 5545 5561 5576 5591 5606 5621 5633 5645 5656 5668 5679 5690 5698 5707 5715
5269 5274 5280 5285 5291 5297 5305 5314 5322 5331 5342 5353 5365 5378 5392 5405 5419 5433 5449 5465 5481 5497 5514 5531 5548 5565 5578 5593 5606 5619 5633 5645 5657 5669 5679 5688 5697 5706
5273 5276 5280 5284 5288 5295 5302 5309 5316 5325 5335 5346 5358 5370 5383 5397 5410 5423 5438 5454 5471 5488 5502 5517 5533 5549 5565 5580 5594 5608 5621 5634 5646 5657 5668 5678 5687 5696
5276 5278 5281 5284 5288 5293 5299 5305 5313 5321 5330 5340 5351 5362 5375 5389 5403 5417 5429 5442 5458 5473 5490 5506 5521 5536 5551 5567 5581 5596 5609 5622 5634 5646 5657 5667 5677 5686
5280 5281 5283 5285 5288 5292 5297 5303 5310 5317 5325 5335 5345 5357 5368 5381 5394 5407 5420 5434 5447 5463 5478 5493 5507 5523 5538 5554 5569 5584 5597 5610 5623 5634 5646 5656 5667 5676
5284 5284 5285 5287 5289 5292 5297 5302 5308 5314 5321 5330 5339 5350 5362 5374 5387 5399 5412 5426 5439 5453 5467 5481 5495 5510 5525 5541 5556 5571 5585 5598 5611 5623 5634 5645 5655 5664
5287 5287 5287 5288 5289 5292 5296 5300 5306 5311 5318 5326 5335 5345 5356 5368 5380 5392 5405 5417 5429 5443 5457 5471 5484 5498 5513 5528 5544 5559 5573 5586 5599 5611 5623 5634 5644 5654
5290 5288 5288 5288 5289 5291 5295 5299 5303 5309 5315 5322 5331 5341 5351 5362 5374 5386 5397 5409 5421 5434 5447 5461 5474 5487 5501 5517 5532 5546 5561 5575 5587 5600 5612 5622 5633 5644
5292 5290 5289 5288 5289 5291 5294 5297 5301 5306 5313 5320 5328 5337 5346 5357 5368 5379 5390 5401 5412 5424 5437 5451 5464 5478 5491 5506 5521 5535 5549 5563 5576 5589 5600 5611 5621 5631
5295 5292 5290 5289 5289 5290 5293 5296 5299 5304 5310 5317 5324 5333 5342 5352 5362 5373 5383 5393 5404 5415 5428 5442 5456 5469 5482 5496 5510 5524 5538 5551 5564 5577 5589 5600 5611 5621
5299 5294 5291 5289 5289 5290 5292 5294 5298 5302 5308 5314 5321 5330 5338 5348 5357 5367 5377 5386 5396 5407 5420 5433 5446 5460 5473 5485 5499 5513 5526 5540 5553 5566 5578 5589 5600 5609
5303 5298 5293 5291 5289 5289 5291 5293 5296 5301 5306 5312 5319 5327 5335 5343 5352 5361 5370 5380 5389 5399 5411 5424 5437 5451 5464 5477 5489 5502 5516 5530 5543 5555 5567 5578 5588 5598
5308 5302 5296 5293 5290 5289 5290 5292 5295 5299 5304 5310 5317 5324 5331 5339 5348 5356 5365 5374 5383 5392 5404 5416 5429 5442 5455 5468 5479 5493 5506 5519 5531 5543 5556 5567 5577 5587
5313 5306 5300 5295 5292 5290 5290 5291 5293 5297 5302 5307 5314 5321 5328 5336 5344 5352 5361 5369 5377 5386 5397 5409 5421 5434 5447 5460 5472 5484 5497 5510 5521 5533 5544 5555 5566 5576
5318 5311 5304 5298 5294 5292 5290 5291 5292 5295 5300 5305 5311 5318 5325 5333 5340 5348 5356 5364 5373 5382 5392 5403 5415 5427 5441 5454 5466 5477 5488 5501 5513 5524 5534 5545 5555 5565
5322 5314 5308 5302 5297 5293 5291 5290 5291 5294 5298 5303 5309 5315 5322 5329 5337 5345 5353 5361 5369 5378 5387 5398 5409 5421 5434 5446 5458 5469 5481 5492 5503 5514 5525 5536 5546 5555
5326 5318 5311 5305 5299 5295 5292 5291 5291 5293 5296 5300 5306 5312 5319 5326 5334 5342 5349 5357 5365 5374 5383 5393 5404 5414 5426 5439 5451 5462 5473 5484 5494 5505 5516 5527 5536 5545
5329 5321 5314 5308 5302 5297 5293 5291 5291 5292 5294 5298 5303 5309 5316 5323 5330 5338 5346 5354 5362 5371 5380 5389 5399 5409 5420 5432 5444 5455 5466 5477 5487 5497 5507 5516 5526 5534